Regional Weather Roundup
Issued by NWS

Home | Current Version | Previous Version | Text Only | Print | Product List | Glossary Off
Versions: 1 2 3 4 5 6 7 8 9 10 11 12 13 14 15 16 17 18 19 20 21 22 23 24 25 26 27 28 29 30 31 32 33 34 35 36 37 38 39 40 41 42 43 44 45 46 47 48 49 50

000
ASUS43 KLSX 252207
RWRMO

WEATHER SUMMARY FOR MISSOURI
NATIONAL WEATHER SERVICE SPRINGFIELD MO
500 PM CDT MON MAY 25 2015

NOTE: "FAIR" INDICATES FEW OR NO CLOUDS BELOW 12,000 FEET WITH NO
       SIGNIFICANT WEATHER AND/OR OBSTRUCTIONS TO VISIBILITY.
       CURRENT SKY AND/OR WEATHER CONDITIONS ARE NOT AVAILABLE FOR
       CHILLICOTHE AND FARMINGTON.

MOZ001>031-035>038-043-044-053-054-252300-
...NORTHERN AND WESTERN MISSOURI...

CITY           SKY/WX    TMP DP  RH WIND       PRES   REMARKS
KANSAS CTY INT PTSUNNY   79  66  64 S20       29.81F
KANSAS C DTWN  MOSUNNY   81  64  56 S16G26    29.80F
LEE`S SUMMIT   MOSUNNY   80  64  58 S10G23    29.83F
ST JOSEPH      PTSUNNY   79  66  64 S17       29.80F
CHILLICOTHE      N/A     80  67  64 S10G21    29.86F
KIRKSVILLE     MOSUNNY   77  68  73 S14       29.91F

$$
MOZ066>068-077>081-088>096-101>105-252300-
...SOUTHWEST MISSOURI...

CITY           SKY/WX    TMP DP  RH WIND       PRES   REMARKS
SPRINGFIELD    MOSUNNY   81  66  60 S12       29.89F
JOPLIN         PTSUNNY   79  66  64 S9        29.87F

$$
MOZ032>034-039>042-045>050-055>058-069>072-252300-
...CENTRAL MISSOURI...

CITY           SKY/WX    TMP DP  RH WIND       PRES   REMARKS
COLUMBIA       MOSUNNY   82  65  56 S13G22    29.90F
JEFFERSON CITY MOSUNNY   84  63  49 SE13      29.89F
ROLLA          SUNNY     80  66  62 S13       29.92F
SEDALIA        SUNNY     82  65  56 S15       29.89F
WARRENSBURG    MOSUNNY   81  63  54 S10       29.85F
OSAGE BEACH    PTSUNNY   84  64  51 S12G20    29.89F

$$
MOZ051-052-059>065-252300-
...EAST CENTRAL MISSOURI...

CITY           SKY/WX    TMP DP  RH WIND       PRES   REMARKS
ST LOUIS INTL  PTSUNNY   85  66  53 S12G21    29.95F
SPIRIT OF STL  PTSUNNY   83  64  52 S10G23    29.93F
ST CHARLES     MOSUNNY   84  66  54 S20       29.93F

$$
MOZ072>076-082>087-097>100-106>115-252300-
...SOUTH CENTRAL AND SOUTHEAST MISSOURI...

CITY           SKY/WX    TMP DP  RH WIND       PRES   REMARKS
CAPE GIRARDEAU PTSUNNY   78  70  76 S13G22    30.02F
FARMINGTON     PTSUNNY   79  66  65 S15       30.03F
POPLAR BLUFF   CLOUDY    79  66  64 S10       29.99F
WEST PLAINS    PTSUNNY   77  63  61 SE9G18    29.96F

$$



USA.gov is the U.S. government's official web portal to all federal, state and local government web resources and services.